Location: Unspecified
(0.0000°N, 0.0000°E)
Time: 05:20:45
(UTC+02:00)

Palapa 6 Rocket - Visible Passes

Search period start: 23 June 2017 00:00
Search period end: 03 July 2017 00:00
Orbit: 485 x 1220 km, 22.7° (Epoch: 22 June)

Date Brightness Start Highest point End Pass type
(mag) Time Alt. Az. Time Alt. Az. Time Alt. Az.
23 Jun 3.6 06:35:13 41° SW 06:36:01 45° SSW 06:41:32 10° SE visible
24 Jun 4.1 06:22:41 35° S 06:22:41 35° S 06:26:54 10° SE visible
25 Jun 5.0 06:10:05 21° SSE 06:10:05 21° SSE 06:12:17 10° SE visible
26 Jun 5.7 05:57:23 11° SE 05:57:23 11° SE 05:57:39 10° SE visible
01 Jul 6.2 22:59:55 10° NNW 23:00:46 12° NNW 23:00:46 12° NNW visible
02 Jul 6.3 20:57:42 10° N 20:59:13 11° N 21:00:40 10° NNE visible
02 Jul 5.8 22:45:02 10° NNW 22:47:23 17° N 22:47:23 17° N visible
